Springfield, OH

3:05 AM EDT on July 28, 2017 (GMT -0400)
Springfield-Beckley Municipal

Weather History for KSGH - January, 2013

Change the Weather History Date:

Monday, January 21, 2013

  Actual Average (KFFO) Record (KFFO)
Temperature  
Mean Temperature 14 °F -  
Max Temperature 21 °F 32 °F 60 °F (2017)
Min Temperature 6 °F 15 °F -4 °F (2000)
Degree Days  
Heating Degree Days 51    
Moisture  
Dew Point 8 °F    
Average Humidity 69    
Maximum Humidity 79    
Minimum Humidity 58    
Precipitation  
Precipitation 0.00 in - - ()
Sea Level Pressure  
Sea Level Pressure 30.10 in    
Wind  
Wind Speed 15 mph (West)    
Max Wind Speed 23 mph    
Max Gust Speed 31 mph    
Visibility 4 miles    
Events Snow    
Averages and records for this station are not official NWS values.
T = Trace of Precipitation, MM = Missing Value Source: NWS Daily Summary

Daily Weather History Graph

Daily Weather History Graph

Search for Another Location

Airport or City:

Trip Planner

Search our weather history database for the weather conditions in past years. The results will help you decide how hot, cold, wet, or windy it might be!

Date:

Astronomy

Jan. 21, 2013 Rise Set
Actual Time 7:51 AM EST 5:42 PM EST
Civil Twilight 7:22 AM EST 6:11 PM EST
Nautical Twilight 6:49 AM EST 6:44 PM EST
Astronomical Twilight 6:17 AM EST 7:16 PM EST
Moon 1:21 PM EST (1/21) 3:19 AM EST (1/21)
Length of Visible Light 10h 48m
Length of Day
9h 50m
Waxing Gibbous, 75% of the Moon is Illuminated
Jan 21
Waxing Gibbous
Jan 26
Full
Feb 3
Last Quarter
Feb 10
New
Feb 17
First Quarter

Hourly Weather History & Observations

Time (EST) Temp. Windchill Dew Point Humidity Pressure Visibility Wind Dir Wind Speed Gust Speed Precip Events Conditions
12:56 AM 21.0 °F 13.4 °F 10.0 °F 63% 30.18 in 7.0 mi WNW 5.8 mph - N/A   Mostly Cloudy
1:56 AM 21.0 °F 11.4 °F 11.1 °F 66% 30.16 in 7.0 mi NW 8.1 mph - N/A   Mostly Cloudy
2:56 AM 21.0 °F 12.4 °F 11.1 °F 66% 30.16 in 7.0 mi West 6.9 mph - N/A   Overcast
3:56 AM 21.0 °F 10.6 °F 12.0 °F 68% 30.14 in 7.0 mi West 9.2 mph - 0.00 in Snow Light Snow
4:56 AM 20.1 °F 8.8 °F 12.0 °F 71% 30.13 in 7.0 mi West 10.4 mph - 0.00 in Snow Light Snow
5:46 AM 19.4 °F 10.4 °F 10.4 °F 68% 30.08 in 7.0 mi West 6.9 mph - 0.00 in   Overcast
5:56 AM 20.1 °F 9.5 °F 11.1 °F 68% 30.13 in 7.0 mi West 9.2 mph - 0.00 in   Overcast
6:56 AM 20.1 °F 6.9 °F 9.1 °F 62% 30.11 in 7.0 mi WSW 13.8 mph - 0.00 in   Overcast
7:56 AM 19.0 °F 7.5 °F 10.0 °F 68% 30.12 in 7.0 mi West 10.4 mph - N/A   Overcast
8:36 AM 19.4 °F 4.5 °F 10.4 °F 68% 30.07 in 6.0 mi West 17.3 mph - 0.00 in Snow Light Snow
8:44 AM 19.4 °F 4.1 °F 8.6 °F 63% 30.07 in 6.0 mi West 18.4 mph 24.2 mph 0.00 in   Haze
8:56 AM 19.0 °F 3.2 °F 9.1 °F 65% 30.12 in 6.0 mi West 19.6 mph - 0.00 in Snow Light Snow
9:56 AM 19.0 °F 3.6 °F 10.0 °F 68% 30.11 in 5.0 mi West 18.4 mph - 0.00 in Snow Light Snow
10:56 AM 19.0 °F 4.0 °F 9.1 °F 65% 30.11 in 5.0 mi West 17.3 mph - 0.00 in Snow Light Snow
11:07 AM 19.4 °F 4.5 °F 8.6 °F 63% 30.07 in 3.0 mi WNW 17.3 mph - 0.00 in Snow Light Snow
11:11 AM 17.6 °F 2.2 °F 10.4 °F 73% 30.07 in 1.8 mi WNW 17.3 mph - 0.00 in Snow Light Snow
11:14 AM 17.6 °F 2.7 °F 10.4 °F 73% 30.07 in 1.2 mi WNW 16.1 mph - 0.00 in Snow Light Snow
11:34 AM 17.6 °F 3.7 °F 12.2 °F 79% 30.06 in 2.0 mi West 13.8 mph - 0.00 in Snow Light Snow
11:42 AM 17.6 °F 3.2 °F 10.4 °F 73% 30.06 in 6.0 mi West 15.0 mph - 0.00 in   Haze
11:56 AM 19.0 °F 2.7 °F 10.0 °F 68% 30.10 in 5.0 mi West 20.7 mph 24.2 mph 0.00 in Snow Light Snow
12:03 PM 17.6 °F 1.7 °F 10.4 °F 73% 30.05 in 2.5 mi WNW 18.4 mph - 0.00 in Snow Light Snow
12:07 PM 17.6 °F 2.2 °F 10.4 °F 73% 30.05 in 1.2 mi West 17.3 mph - 0.00 in Snow Light Snow
12:11 PM 17.6 °F 2.7 °F 12.2 °F 79% 30.05 in 0.8 mi West 16.1 mph - 0.00 in Snow Light Snow
12:21 PM 17.6 °F 0.9 °F 12.2 °F 79% 30.06 in 0.5 mi WNW 20.7 mph 24.2 mph 0.00 in Snow Snow
12:26 PM 15.8 °F -0.6 °F 10.4 °F 79% 30.06 in 0.5 mi WNW 18.4 mph 25.3 mph 0.00 in Snow Snow
12:32 PM 15.8 °F -0.6 °F 10.4 °F 79% 30.06 in 0.8 mi WNW 18.4 mph 25.3 mph 0.00 in Snow Light Snow
12:34 PM 15.8 °F 0.9 °F 10.4 °F 79% 30.05 in 1.2 mi WNW 15.0 mph 25.3 mph 0.00 in Snow Light Snow
12:36 PM 15.8 °F 0.3 °F 10.4 °F 79% 30.05 in 2.0 mi WNW 16.1 mph 24.2 mph 0.00 in Snow Light Snow
12:46 PM 15.8 °F -1.9 °F 8.6 °F 73% 30.06 in 3.0 mi West 21.9 mph - 0.00 in Snow Light Snow
12:56 PM 18.1 °F 2.4 °F 9.1 °F 68% 30.10 in 2.5 mi West 18.4 mph 27.6 mph 0.00 in Snow Light Snow
1:07 PM 17.6 °F 0.5 °F 8.6 °F 68% 30.05 in 3.0 mi West 21.9 mph - 0.00 in Snow Light Snow
1:14 PM 17.6 °F 1.3 °F 8.6 °F 68% 30.05 in 4.0 mi West 19.6 mph 28.8 mph 0.00 in Snow Light Snow
1:27 PM 17.6 °F 0.9 °F 8.6 °F 68% 30.04 in 4.0 mi WNW 20.7 mph 24.2 mph 0.00 in Snow Light Snow
1:35 PM 15.8 °F -0.2 °F 8.6 °F 73% 30.05 in 3.0 mi WNW 17.3 mph 25.3 mph 0.00 in Snow Light Snow
1:40 PM 15.8 °F -0.6 °F 8.6 °F 73% 30.05 in 2.0 mi WNW 18.4 mph - 0.00 in Snow Light Snow
1:45 PM 15.8 °F -0.2 °F 8.6 °F 73% 30.05 in 1.2 mi West 17.3 mph - 0.00 in Snow Light Snow
1:56 PM 16.2 °F -1.0 °F 9.1 °F 74% 30.10 in 2.0 mi West 20.7 mph - 0.00 in Snow Light Snow
2:10 PM 15.8 °F -1.1 °F 6.8 °F 68% 30.05 in 4.0 mi West 19.6 mph - 0.00 in Snow Light Snow
2:19 PM 15.8 °F -1.1 °F 6.8 °F 68% 30.06 in 1.8 mi WNW 19.6 mph - 0.00 in Snow Light Snow
2:23 PM 15.8 °F 0.3 °F 8.6 °F 73% 30.06 in 1.0 mi WNW 16.1 mph - 0.00 in Snow Light Snow
2:31 PM 15.8 °F -0.6 °F 8.6 °F 73% 30.06 in 1.2 mi West 18.4 mph 25.3 mph 0.00 in Snow Light Snow
2:41 PM 15.8 °F -1.1 °F 8.6 °F 73% 30.06 in 1.8 mi West 19.6 mph 25.3 mph 0.00 in Snow Light Snow
2:47 PM 15.8 °F -1.1 °F 8.6 °F 73% 30.06 in 1.2 mi West 19.6 mph - 0.00 in Snow Light Snow
2:56 PM 16.2 °F -0.2 °F 8.1 °F 70% 30.11 in 2.5 mi West 18.4 mph - 0.00 in Snow Light Snow
3:05 PM 15.8 °F -1.9 °F 8.6 °F 73% 30.07 in 1.2 mi WNW 21.9 mph 26.5 mph 0.00 in Snow Light Snow
3:07 PM 14.0 °F -3.9 °F 8.6 °F 79% 30.07 in 0.8 mi WNW 20.7 mph 26.5 mph 0.00 in Snow Light Snow
3:15 PM 15.8 °F -1.1 °F 8.6 °F 73% 30.07 in 1.2 mi West 19.6 mph - 0.00 in Snow Light Snow
3:17 PM 15.8 °F -1.9 °F 8.6 °F 73% 30.07 in 2.0 mi West 21.9 mph 27.6 mph 0.00 in Snow Light Snow
3:24 PM 15.8 °F -1.1 °F 6.8 °F 68% 30.07 in 6.0 mi West 19.6 mph 27.6 mph 0.00 in   Haze
3:36 PM 15.8 °F -2.3 °F 6.8 °F 68% 30.08 in 1.8 mi West 23.0 mph 29.9 mph 0.00 in Snow Light Snow
3:44 PM 15.8 °F -0.6 °F 6.8 °F 68% 30.08 in 2.5 mi West 18.4 mph 29.9 mph 0.00 in Snow Light Snow
3:56 PM 15.1 °F -2.9 °F 5.0 °F 64% 30.14 in 4.0 mi West 21.9 mph 31.1 mph 0.00 in Snow Light Snow
4:56 PM 13.1 °F -5.1 °F 1.0 °F 59% 30.16 in 6.0 mi West 20.7 mph - 0.00 in   Haze
5:39 PM 10.4 °F -6.6 °F 3.2 °F 73% 30.12 in 2.5 mi West 16.1 mph - 0.00 in Snow Light Snow
5:47 PM 10.4 °F -9.1 °F 1.4 °F 67% 30.12 in 6.0 mi WNW 21.9 mph 27.6 mph 0.00 in   Haze
5:56 PM 11.1 °F -7.7 °F 0.1 °F 61% 30.18 in 6.0 mi West 20.7 mph 26.5 mph 0.00 in   Haze
6:56 PM 10.0 °F -10.0 °F -1.8 °F 59% 30.20 in 7.0 mi West 23.0 mph 28.8 mph N/A   Partly Cloudy
7:56 PM 9.1 °F -10.7 °F -2.9 °F 58% 30.20 in 7.0 mi West 21.9 mph 28.8 mph N/A   Clear
8:56 PM 8.1 °F -10.7 °F -2.9 °F 61% 30.22 in 7.0 mi WNW 18.4 mph 23.0 mph N/A   Clear
9:56 PM 7.2 °F -10.8 °F -2.9 °F 63% 30.24 in 7.0 mi West 16.1 mph 25.3 mph N/A   Scattered Clouds
10:56 PM 7.2 °F -9.6 °F -4.9 °F 58% 30.25 in 7.0 mi West 13.8 mph 23.0 mph N/A   Clear
11:56 PM 6.1 °F -12.2 °F -6.0 °F 58% 30.26 in 7.0 mi WNW 16.1 mph - N/A   Clear